This is the latest recevied weather packets stored in our database for station/object KB3GVC-13. If no packets are shown the sender has not sent any weather packets the latest 1 day(s).
| Time | Temp. | Humidity | Pressure | Rain* | Wind** | Luminosity | Snow |
|---|---|---|---|---|---|---|---|
| 1778013357 | 28.33° C | 36% | 1010.1 hPa | 0 mm | 1.79 m/s, 122° | - | - |
| 1778013055 | 27.78° C | 35% | 1010.3 hPa | 0 mm | 3.58 m/s, 100° | - | - |
| 1778012751 | 27.78° C | 36% | 1009.9 hPa | 0 mm | 1.34 m/s, 163° | - | - |
| 1778012447 | 28.33° C | 35% | 1010.2 hPa | 0 mm | 4.02 m/s, 155° | - | - |
| 1778012144 | 28.33° C | 35% | 1010.1 hPa | 0 mm | 3.58 m/s, 66° | - | - |
| 1778011842 | 28.33° C | 35% | 1010.2 hPa | 0 mm | 2.68 m/s, 152° | - | - |
| 1778011539 | 28.33° C | 36% | 1010.1 hPa | 0 mm | 1.34 m/s, 185° | - | - |
| 1778011236 | 28.33° C | 34% | 1010.4 hPa | 0 mm | 1.79 m/s, 234° | - | - |
| 1778010932 | 27.78° C | 35% | 1010.4 hPa | 0 mm | 1.79 m/s, 140° | - | - |
| 1778010629 | 27.78° C | 34% | 1010.3 hPa | 0 mm | 3.13 m/s, 133° | - | - |
| 1778010326 | 27.78° C | 34% | 1010.2 hPa | 0 mm | 3.13 m/s, 246° | - | - |
| 1778010021 | 28.33° C | 34% | 1010.6 hPa | 0 mm | 2.24 m/s, 271° | - | - |
| 1778009719 | 28.33° C | 33% | 1010.4 hPa | 0 mm | 2.68 m/s, 156° | - | - |
| 1778009416 | 28.33° C | 33% | 1010.6 hPa | 0 mm | 2.68 m/s, 270° | - | - |
| 1778009115 | 28.89° C | 32% | 1010.4 hPa | 0 mm | 2.68 m/s, 160° | - | - |
| 1778008812 | 28.33° C | 33% | 1010.6 hPa | 0 mm | 2.24 m/s, 185° | - | - |
| 1778008510 | 28.33° C | 33% | 1010.8 hPa | 0 mm | 1.79 m/s, 221° | - | - |
| 1778008208 | 27.78° C | 32% | 1010.8 hPa | 0 mm | 2.68 m/s, 281° | - | - |
| 1778007902 | 28.33° C | 32% | 1010.6 hPa | 0 mm | 4.02 m/s, 136° | - | - |
| 1778007598 | 28.33° C | 33% | 1010.9 hPa | 0 mm | 1.79 m/s, 190° | - | - |
| 1778007296 | 28.89° C | 32% | 1010.9 hPa | 0 mm | 1.79 m/s, 145° | - | - |
| 1778006991 | 28.89° C | 32% | 1011 hPa | 0 mm | 2.24 m/s, 106° | - | - |
| 1778006688 | 28.33° C | 35% | 1011.1 hPa | 0 mm | 0.89 m/s, 203° | - | - |
| 1778006385 | 28.33° C | 35% | 1011.2 hPa | 0 mm | 0.89 m/s, 235° | - | - |
| 1778006082 | 28.33° C | 38% | 1011.2 hPa | 0 mm | 1.34 m/s, 294° | - | - |
* Rain latest hour (hover to see other rain measurements)
** Current wind speed in m/s (hover to see current wind gust speed)